Погода в Абрикосово

Россия / Республика Крым     45°41′24″N   34°05′45″E
темп.,
°C
ветер,
м/с
пор.,
м/с
влажн.,
%
обл.,
%
осадки,
мм/ч
давл.,
гПа
погр.,
м
4 июля, пн
пн400:00+19сз46590 0.0 101776
03:00+18ссз22535 0.0 101711
06:00+19ссз22561 0.0 101721
09:00+26ссв2337100 0.0 1017722
12:00+30всв44273 0.0 10162235
15:00+31всв54220 0.0 10152532
18:00+31юв22220 0.0 10141618
21:00+23ссз114474 0.0 101511
5 июля, вт
вт500:00+22з22477 0.0 101517
03:00+21зсз22515 0.0 101511
06:00+21ссз22580 0.0 101520
09:00+29ссв23360 0.0 1016578
12:00+33св542537 0.0 10153273
15:00+34в65213 0.0 10143328
18:00+33в54232 0.0 10132041
21:00+26всв464688 0.0 1014131
6 июля, ср
ср600:00+23юв33525 0.0 101444
03:00+21вюв22653 0.0 101418
06:00+22всв22632 0.0 101436
09:00+30всв66360 0.0 1014920
12:00+33всв77270 0.0 10142601
15:00+33в86240 0.0 10132305
18:00+30в78270 0.0 10131183
21:00+23в33450 0.0 101324
7 июля, чт
чт700:00+20всв11530 0.0 101311
03:00+20св34560 0.0 101252
06:00+21в35740 0.0 101291
09:00+29всв57320 0.0 10121108
12:00+31всв810235 0.0 10121985
15:00+31всв89220 0.0 10121683
18:00+29всв67260 0.0 10111086
21:00+23в33470 0.0 101134
8 июля, пт
пт800:00+21св22505 0.0 101111
03:00+20с355414 0.0 101166
06:00+21св33635 0.0 101167
09:00+30всв6733100 0.0 10101190
12:00+31всв7730100 0.0 10101743
15:00+30всв7632100 0.0 10101586
18:00+29всв55335 0.0 1010976
21:00+22в34560 0.0 101044